Weather History for Farmington, MO

Change the Weather History Date:

Saturday, March 30, 2013

  Actual Average Record
Temperature  
Mean Temperature 44 °F -  
Max Temperature 53 °F 60 °F 80 °F (2012)
Min Temperature 35 °F 39 °F 26 °F (2014)
Degree Days  
Heating Degree Days 21    
Moisture  
Dew Point 42 °F    
Average Humidity 90    
Maximum Humidity 100    
Minimum Humidity 67    
Precipitation  
Precipitation 0.18 in - - ()
Sea Level Pressure  
Sea Level Pressure 30.08 in    
Wind  
Wind Speed 3 mph (SSE)    
Max Wind Speed 12 mph    
Max Gust Speed -    
Visibility 3 miles    
Events      
Averages and records for this station are not official NWS values.
T = Trace of Precipitation, MM = Missing Value Source: NWS Daily Summary

Daily Weather History Graph

Daily Weather History Graph

Search for Another Location

Airport:

Trip Planner

Search our weather history database for the weather conditions in past years. The results will help you decide how hot, cold, wet, or windy it might be!

Date:

Astronomy

Mar. 30, 2013 Rise Set
Actual Time 6:49 AM CDT 7:23 PM CDT
Civil Twilight 6:23 AM CDT 7:49 PM CDT
Nautical Twilight 5:52 AM CDT 8:20 PM CDT
Astronomical Twilight 5:20 AM CDT 8:52 PM CDT
Moon 11:25 PM CDT (3/30) 8:49 AM CDT (3/30)
Length of Visible Light 13h 26m
Length of Day
12h 33m
Waning Gibbous, 86% of the Moon is Illuminated
Mar 30
Waning Gibbous
Apr 2
Last Quarter
Apr 10
New
Apr 18
First Quarter
Apr 25
Full

Hourly Weather History & Observations

Time (CDT) Temp. Windchill Dew Point Humidity Pressure Visibility Wind Dir Wind Speed Gust Speed Precip Events Conditions
12:15 AM 39.2 °F - 37.4 °F 93% 30.21 in 0.2 mi Calm Calm - N/A   Mostly Cloudy
12:35 AM 39.2 °F - 37.4 °F 93% 30.21 in 0.2 mi Calm Calm - N/A   Mostly Cloudy
12:55 AM 37.4 °F - 35.6 °F 93% 30.21 in 0.2 mi Calm Calm - N/A   Overcast
1:15 AM 37.4 °F - 35.6 °F 93% 30.21 in 0.2 mi Calm Calm - N/A   Overcast
1:35 AM 37.4 °F - 35.6 °F 93% 30.21 in 0.2 mi Calm Calm - N/A   Overcast
1:55 AM 37.4 °F - 35.6 °F 93% 30.21 in 0.2 mi Calm Calm - N/A   Overcast
2:15 AM 37.4 °F - 35.6 °F 93% 30.20 in 0.2 mi Calm Calm - N/A   Overcast
2:35 AM 35.6 °F - 35.6 °F 100% 30.20 in 0.2 mi Calm Calm - N/A   Overcast
2:55 AM 37.4 °F - 35.6 °F 93% 30.20 in 0.2 mi Calm Calm - N/A   Overcast
3:15 AM 37.4 °F - 37.4 °F 100% 30.19 in 0.2 mi Calm Calm - N/A   Overcast
3:35 AM 37.4 °F - 35.6 °F 93% 30.19 in 0.2 mi Calm Calm - N/A   Overcast
3:55 AM 37.4 °F - 35.6 °F 93% 30.19 in 0.2 mi Calm Calm - N/A   Overcast
4:15 AM 37.4 °F - 37.4 °F 100% 30.19 in 0.2 mi Calm Calm - N/A   Overcast
4:35 AM 39.2 °F - 37.4 °F 93% 30.17 in 0.2 mi Calm Calm - N/A   Overcast
4:55 AM 37.4 °F - 37.4 °F 100% 30.18 in 0.2 mi Calm Calm - N/A   Overcast
5:15 AM 39.2 °F - 37.4 °F 93% 30.17 in 0.2 mi Calm Calm - N/A   Overcast
5:35 AM 39.2 °F - 37.4 °F 93% 30.17 in 0.2 mi Calm Calm - N/A   Overcast
5:55 AM 39.2 °F - 39.2 °F 100% 30.16 in 0.2 mi Calm Calm - N/A   Overcast
6:15 AM 39.2 °F - 39.2 °F 100% 30.16 in 0.2 mi Calm Calm - N/A   Overcast
6:35 AM 39.2 °F 37.0 °F 37.4 °F 93% 30.17 in 0.2 mi South 3.5 mph - N/A   Overcast
6:55 AM 39.2 °F 34.2 °F 39.2 °F 100% 30.18 in 0.2 mi SSE 6.9 mph - N/A   Overcast
7:15 AM 39.2 °F 35.0 °F 39.2 °F 100% 30.17 in 0.2 mi SSE 5.8 mph - N/A   Overcast
7:35 AM 39.2 °F 35.9 °F 37.4 °F 93% 30.17 in 0.2 mi SSE 4.6 mph - N/A   Overcast
7:55 AM 41.0 °F 37.1 °F 39.2 °F 93% 30.17 in 0.2 mi SSE 5.8 mph - N/A   Overcast
8:15 AM 41.0 °F 39.0 °F 39.2 °F 93% 30.17 in 0.2 mi SE 3.5 mph - N/A   Overcast
8:35 AM 42.8 °F 39.3 °F 39.2 °F 87% 30.17 in 0.2 mi SSE 5.8 mph - N/A   Overcast
8:55 AM 42.8 °F 38.0 °F 41.0 °F 93% 30.16 in 0.2 mi SE 8.1 mph - N/A   Overcast
9:15 AM 42.8 °F 39.3 °F 41.0 °F 93% 30.16 in 0.2 mi South 5.8 mph - N/A   Overcast
9:35 AM 42.8 °F 39.3 °F 41.0 °F 93% 30.15 in 1.2 mi SSE 5.8 mph - N/A   Overcast
9:55 AM 44.6 °F 40.7 °F 42.8 °F 93% 30.15 in 5.0 mi SSE 6.9 mph - N/A   Overcast
10:15 AM 44.6 °F 39.7 °F 44.6 °F 100% 30.14 in 7.0 mi SSE 9.2 mph - N/A   Mostly Cloudy
10:35 AM 44.6 °F 39.7 °F 44.6 °F 100% 30.14 in 9.0 mi SE 9.2 mph - N/A   Scattered Clouds
10:55 AM 46.4 °F 42.4 °F 44.6 °F 93% 30.14 in 10.0 mi SSE 8.1 mph - N/A   Mostly Cloudy
11:15 AM 46.4 °F 41.9 °F 44.6 °F 93% 30.13 in 10.0 mi SE 9.2 mph - N/A   Scattered Clouds
11:35 AM 48.2 °F - 44.6 °F 87% 30.12 in 10.0 mi SE 10.4 mph - N/A   Partly Cloudy
11:55 AM 48.2 °F - 44.6 °F 87% 30.11 in 10.0 mi SE 11.5 mph - N/A   Clear
12:15 PM 48.2 °F - 44.6 °F 87% 30.10 in 10.0 mi SE 9.2 mph - N/A   Scattered Clouds
12:35 PM 50.0 °F - 44.6 °F 82% 30.09 in 10.0 mi SSE 9.2 mph - N/A   Mostly Cloudy
12:55 PM 50.0 °F - 44.6 °F 82% 30.08 in 10.0 mi SE 9.2 mph - N/A   Mostly Cloudy
1:15 PM 51.8 °F - 42.8 °F 71% 30.06 in 10.0 mi SE 11.5 mph - N/A   Mostly Cloudy
1:35 PM 53.6 °F - 42.8 °F 67% 30.05 in 10.0 mi SSE 10.4 mph - N/A   Mostly Cloudy
1:55 PM 51.8 °F - 41.0 °F 67% 30.05 in 10.0 mi SSE 10.4 mph - N/A   Mostly Cloudy
2:15 PM 51.8 °F - 42.8 °F 71% 30.04 in 10.0 mi SSE 11.5 mph - N/A   Overcast
2:35 PM 51.8 °F - 42.8 °F 71% 30.04 in 10.0 mi SSE 5.8 mph - N/A   Overcast
2:55 PM 51.8 °F - 44.6 °F 76% 30.03 in 10.0 mi South 10.4 mph - N/A   Overcast
3:15 PM 51.8 °F - 42.8 °F 71% 30.03 in 10.0 mi South 10.4 mph - N/A   Overcast
3:35 PM 50.0 °F - 44.6 °F 82% 30.02 in 8.0 mi South 3.5 mph - 0.01 in   Overcast
3:55 PM 50.0 °F - 44.6 °F 82% 30.00 in 9.0 mi SSE 6.9 mph - 0.01 in   Overcast
4:15 PM 48.2 °F - 44.6 °F 87% 29.99 in 6.0 mi ESE 5.8 mph - 0.02 in   Overcast
4:35 PM 48.2 °F - 44.6 °F 87% 29.99 in 5.0 mi ESE 4.6 mph - 0.05 in   Overcast
4:55 PM 48.2 °F - 44.6 °F 87% 30.00 in 3.0 mi Calm Calm - 0.08 in   Overcast
5:15 PM 48.2 °F - 44.6 °F 87% 29.99 in 3.0 mi Calm Calm - 0.06 in   Overcast
5:35 PM 48.2 °F - 46.4 °F 93% 29.98 in 3.0 mi ENE 4.6 mph - 0.08 in   Mostly Cloudy
5:55 PM 48.2 °F - 44.6 °F 87% 29.98 in 2.0 mi East 4.6 mph - 0.09 in   Overcast
6:15 PM 48.2 °F - 44.6 °F 87% 29.97 in 1.8 mi East 5.8 mph - N/A   Overcast
6:35 PM 48.2 °F - 44.6 °F 87% 29.97 in 1.8 mi ESE 4.6 mph - N/A   Overcast
6:55 PM 48.2 °F - 44.6 °F 87% 29.97 in 1.5 mi SE 5.8 mph - N/A   Overcast
7:15 PM 46.4 °F 43.5 °F 44.6 °F 93% 29.96 in 2.0 mi SE 5.8 mph - N/A   Overcast
7:35 PM 46.4 °F 44.3 °F 44.6 °F 93% 29.96 in 3.0 mi SE 4.6 mph - N/A   Overcast
7:55 PM 46.4 °F 42.9 °F 44.6 °F 93% 29.95 in 3.0 mi SE 6.9 mph - N/A   Overcast
8:15 PM 46.4 °F 45.2 °F 44.6 °F 93% 29.95 in 3.0 mi SE 3.5 mph - N/A   Overcast
8:35 PM 46.4 °F 45.2 °F 44.6 °F 93% 29.96 in 4.0 mi SSE 3.5 mph - N/A   Overcast
8:55 PM 46.4 °F 43.5 °F 44.6 °F 93% 29.95 in 3.0 mi SSE 5.8 mph - N/A   Overcast
9:15 PM 46.4 °F 43.5 °F 46.4 °F 100% 29.95 in 2.5 mi SSE 5.8 mph - N/A   Overcast
9:35 PM 48.2 °F - 46.4 °F 93% 29.95 in 2.0 mi SSE 4.6 mph - N/A   Overcast
9:55 PM 48.2 °F - 46.4 °F 93% 29.96 in 2.5 mi South 3.5 mph - N/A   Overcast
10:15 PM 48.2 °F - 46.4 °F 93% 29.96 in 2.0 mi South 4.6 mph - N/A   Overcast
10:35 PM 48.2 °F - 46.4 °F 93% 29.95 in 1.0 mi South 4.6 mph - N/A   Overcast
10:55 PM 48.2 °F - 46.4 °F 93% 29.95 in 0.5 mi SSW 3.5 mph - N/A   Overcast
11:15 PM 48.2 °F - 46.4 °F 93% 29.95 in 0.5 mi SW 4.6 mph - N/A   Overcast
11:35 PM 48.2 °F - 46.4 °F 93% 29.94 in 0.5 mi WSW 3.5 mph - N/A   Overcast
11:55 PM 48.2 °F - 46.4 °F 93% 29.94 in 0.5 mi SW 3.5 mph - N/A   Overcast